Home   Weather   Oberlin   Past weeks

Flag for USA Past Weather in Oberlin, Ohio, USA — Yesterday and Last 2 Weeks

Now
75 °F

Scattered clouds.


Feels Like: 78 °F
Forecast: 54 / 74 °F
Wind: 26 mph from Southwest

Location: Lorain County Regional Airport

Current Time: Apr 27, 2017 at 11:26:43 am

Latest Report: Apr 27, 2017 at 10:53 am


Visibility: 10 mi

Pressure: 29.56 "Hg

Humidity: 48%

Dew Point: 54 °F

Location of OberlinLocation

Past Weather in Oberlin — Graph

°F

Oberlin Temperature Yesterday

Maximum temperature yesterday: 80 °F (at 4:53 pm)
Minimum temperature yesterday: 53 °F (at 5:53 am)
Average temperature yesterday: 67 °F

High & Low Weather Summary for the Past Weeks

 TemperatureHumidityPressure
High80 °F (Apr 15, 4:53 pm)96% (Apr 20, 7:53 am)30.48 "Hg (Apr 20, 7:53 am)
Low34 °F (Apr 23, 6:53 am)20% (Apr 17, 4:53 pm)29.55 "Hg (Apr 27, 9:53 am)
Average58 °F62%30.05 "Hg
* Reported Apr 12 9:53 am — Apr 27 9:53 am, Oberlin, Weather by CustomWeather, © 2017

Note: Actual official high and low records may vary slightly from our data, if they occured in-between our weather recording intervals... More about our weather records

Advertising

Oberlin Weather History for the Previous 24 Hours

Scroll right to see more
 ConditionsComfort  
Time TempWeatherWind HumidityBarometerVisibility
9:53 am
Thu, Apr 27
72 °FSunny.16 mph53%29.55 "Hg10 mi
8:53 am70 °FSunny.14 mph55%29.57 "Hg10 mi
7:53 am66 °FSunny.13 mph59%29.57 "Hg10 mi
6:53 am64 °FSunny.10 mph61%29.58 "Hg10 mi
5:53 am65 °FClear.13 mph59%29.57 "Hg10 mi
4:53 am66 °FClear.14 mph54%29.56 "Hg10 mi
3:53 am66 °FClear.13 mph54%29.57 "Hg10 mi
2:53 am66 °FClear.9 mph56%29.57 "Hg10 mi
1:53 am67 °FClear.12 mph55%29.58 "Hg10 mi
12:53 am67 °FClear.12 mph57%29.58 "Hg10 mi
11:53 pm
Wed, Apr 26
69 °FClear.10 mph53%29.60 "Hg10 mi
10:53 pm70 °FClear.10 mph53%29.61 "Hg10 mi
9:53 pm71 °FClear.10 mph51%29.61 "Hg10 mi
8:53 pm72 °FClear.9 mph46%29.59 "Hg10 mi
7:53 pm77 °FSunny.10 mph40%29.58 "Hg10 mi
6:53 pm80 °FSunny.12 mph35%29.57 "Hg10 mi
5:53 pm80 °FSunny.21 mph38%29.57 "Hg9 mi
4:53 pm80 °FSunny.24 mph38%29.58 "Hg10 mi
3:53 pm79 °FSunny.20 mph42%29.59 "Hg10 mi
2:53 pm78 °FSunny.17 mph46%29.62 "Hg10 mi
1:53 pm76 °FSunny.17 mph50%29.65 "Hg10 mi
12:53 pm73 °FSunny.15 mph55%29.68 "Hg10 mi
11:53 am70 °FSunny.13 mph64%29.70 "Hg10 mi
Weather by CustomWeather, © 2017

See weather overviewHow to use our weather pages